CFG3HD EDDL-GCLP

Flight info

Callsign CFG3HD
Flight time 4h 23m
Altitude 31000
Route MODRU7Z MODRU Z717 MAS UM617 CIV N872 MEDIL/N0454F330 DCT KOVIN DCT DUCRA UM728 RESMI UN857 DISAK DCT ARKIP DCT ARNAV DCT LMG DCT UVELI DCT OSMOB DCT VAVIX DCT NETUK DCT PPN DCT NOLSA N857 KORNO/N0457F350 UN857 TERTO
Aircraft A321/M-SDE3FGHIJ1LORVWXYZ/LB1D1

Departure

Time 2026-05-01 08:13
Airport Düsseldorf Airport (EDDL)

Arrival

Time 2026-05-01 12:36
Airport Gran Canaria Airport (GCLP)
Time Latitude Longitude Altitude Speed Heading
2026-05-01 07:31 51.28066 6.76290 124 ft 0 kts 185°
2026-05-01 08:03 51.28068 6.76290 128 ft 2 kts 185°
2026-05-01 08:04 51.28118 6.76297 124 ft 4 kts 180°
2026-05-01 08:04 51.28144 6.76250 122 ft 4 kts 72°
2026-05-01 08:05 51.28128 6.76207 123 ft 0 kts 52°
2026-05-01 08:06 51.28128 6.76208 123 ft 1 kts 52°
2026-05-01 08:07 51.28186 6.76244 126 ft 7 kts 346°
2026-05-01 08:07 51.28290 6.76359 124 ft 15 kts 53°
2026-05-01 08:08 51.28354 6.76492 122 ft 15 kts 52°
2026-05-01 08:08 51.28467 6.76730 123 ft 12 kts 52°
2026-05-01 08:09 51.28608 6.77026 127 ft 21 kts 53°
2026-05-01 08:09 51.28694 6.77206 128 ft 20 kts 53°
2026-05-01 08:09 51.28774 6.77374 128 ft 18 kts 52°
2026-05-01 08:10 51.28951 6.77745 128 ft 24 kts 52°
2026-05-01 08:10 51.29135 6.78131 133 ft 19 kts 52°
2026-05-01 08:11 51.29294 6.78464 147 ft 20 kts 52°
2026-05-01 08:11 51.29459 6.78565 152 ft 15 kts 355°
2026-05-01 08:12 51.29513 6.78459 150 ft 0 kts 234°
2026-05-01 08:12 51.28964 6.77307 129 ft 131 kts 232°
2026-05-01 08:13 51.28327 6.75962 174 ft 172 kts 232°
2026-05-01 08:13 51.27635 6.74489 897 ft 163 kts 228°
2026-05-01 08:13 51.26193 6.71418 1653 ft 186 kts 226°
2026-05-01 08:14 51.25388 6.69710 1928 ft 199 kts 225°
2026-05-01 08:14 51.24533 6.67892 2250 ft 209 kts 225°
2026-05-01 08:14 51.23706 6.65940 2687 ft 220 kts 239°
2026-05-01 08:14 51.23600 6.63434 3185 ft 240 kts 280°
2026-05-01 08:15 51.24492 6.61039 3436 ft 264 kts 310°
2026-05-01 08:15 51.27516 6.57068 4304 ft 290 kts 324°
2026-05-01 08:15 51.29182 6.55229 5057 ft 292 kts 325°
2026-05-01 08:16 51.30842 6.53361 5841 ft 291 kts 324°
2026-05-01 08:16 51.32484 6.51432 6519 ft 295 kts 323°
2026-05-01 08:16 51.34110 6.49416 7187 ft 297 kts 321°
2026-05-01 08:16 51.35729 6.47326 7783 ft 301 kts 321°
2026-05-01 08:17 51.37368 6.45200 8425 ft 303 kts 321°
2026-05-01 08:17 51.38790 6.42719 9029 ft 306 kts 299°
2026-05-01 08:17 51.39517 6.39529 9589 ft 308 kts 275°
2026-05-01 08:17 51.39431 6.36137 10141 ft 305 kts 251°
2026-05-01 08:18 51.38564 6.33097 10698 ft 300 kts 229°
2026-05-01 08:18 51.35280 6.29280 11828 ft 291 kts 204°
2026-05-01 08:19 51.31682 6.26492 13174 ft 286 kts 196°
2026-05-01 08:19 51.29807 6.25383 13750 ft 288 kts 196°
2026-05-01 08:19 51.27921 6.24275 14288 ft 290 kts 196°
2026-05-01 08:19 51.26015 6.23158 14777 ft 293 kts 196°
2026-05-01 08:20 51.24094 6.22031 15258 ft 295 kts 197°
2026-05-01 08:20 51.22157 6.20893 15738 ft 298 kts 197°
2026-05-01 08:20 51.20201 6.19747 16210 ft 301 kts 197°
2026-05-01 08:20 51.18232 6.18598 16697 ft 303 kts 196°
2026-05-01 08:21 51.16241 6.17438 17178 ft 305 kts 197°
2026-05-01 08:21 51.14239 6.16272 17656 ft 307 kts 197°
2026-05-01 08:21 51.12227 6.15103 18139 ft 309 kts 197°
2026-05-01 08:21 51.10196 6.13920 18603 ft 312 kts 197°
2026-05-01 08:22 51.08147 6.12734 19014 ft 315 kts 197°
2026-05-01 08:22 51.06090 6.11507 19422 ft 318 kts 201°
2026-05-01 08:22 51.04117 6.09868 19823 ft 322 kts 210°
2026-05-01 08:22 51.02309 6.07735 20226 ft 326 kts 220°
2026-05-01 08:23 51.00709 6.05154 20602 ft 331 kts 228°
2026-05-01 08:23 50.99329 6.02137 20730 ft 345 kts 237°
2026-05-01 08:23 50.98143 5.98745 20867 ft 357 kts 239°
2026-05-01 08:23 50.96989 5.95189 20995 ft 369 kts 245°
2026-05-01 08:24 50.96073 5.91320 21119 ft 381 kts 251°
2026-05-01 08:24 50.95323 5.87233 21256 ft 392 kts 253°
2026-05-01 08:24 50.94649 5.82985 21379 ft 402 kts 255°
2026-05-01 08:24 50.93993 5.78683 21518 ft 411 kts 255°
2026-05-01 08:25 50.93293 5.74238 21638 ft 420 kts 254°
2026-05-01 08:25 50.92541 5.69713 21769 ft 428 kts 253°
2026-05-01 08:25 50.91732 5.65069 21917 ft 436 kts 253°
2026-05-01 08:25 50.90910 5.60492 22211 ft 438 kts 252°
2026-05-01 08:26 50.90062 5.55849 22592 ft 440 kts 252°
2026-05-01 08:26 50.89205 5.51187 22940 ft 441 kts 252°
2026-05-01 08:26 50.88347 5.46515 23276 ft 443 kts 252°
2026-05-01 08:26 50.87483 5.41818 23621 ft 446 kts 252°
2026-05-01 08:27 50.86616 5.37090 23927 ft 448 kts 252°
2026-05-01 08:27 50.85748 5.32347 24203 ft 450 kts 252°
2026-05-01 08:27 50.84876 5.27578 24491 ft 452 kts 252°
2026-05-01 08:27 50.84004 5.22811 24761 ft 453 kts 252°
2026-05-01 08:28 50.83124 5.17999 25034 ft 455 kts 252°
2026-05-01 08:28 50.82241 5.13180 25324 ft 456 kts 252°
2026-05-01 08:28 50.81352 5.08364 25603 ft 457 kts 252°
2026-05-01 08:28 50.80453 5.03518 25870 ft 459 kts 252°
2026-05-01 08:29 50.79551 4.98668 26130 ft 460 kts 252°
2026-05-01 08:29 50.78647 4.93807 26379 ft 462 kts 252°
2026-05-01 08:29 50.77735 4.88924 26632 ft 464 kts 252°
2026-05-01 08:29 50.76818 4.84026 26886 ft 465 kts 252°
2026-05-01 08:30 50.75898 4.79122 27128 ft 467 kts 252°
2026-05-01 08:30 50.74973 4.74197 27380 ft 469 kts 252°
2026-05-01 08:30 50.74043 4.69274 27682 ft 469 kts 252°
2026-05-01 08:30 50.73106 4.64328 28073 ft 467 kts 251°
2026-05-01 08:31 50.72178 4.59445 28484 ft 465 kts 251°
2026-05-01 08:31 50.71247 4.54552 28848 ft 464 kts 251°
2026-05-01 08:31 50.70319 4.49692 29210 ft 462 kts 251°
2026-05-01 08:31 50.69394 4.44843 29550 ft 462 kts 251°
2026-05-01 08:32 50.68465 4.39990 29890 ft 461 kts 251°
2026-05-01 08:32 50.67536 4.35158 30217 ft 460 kts 251°
2026-05-01 08:32 50.66606 4.30334 30518 ft 459 kts 251°
2026-05-01 08:32 50.65677 4.25529 30793 ft 458 kts 251°
2026-05-01 08:33 50.64746 4.20729 31080 ft 458 kts 251°
2026-05-01 08:33 50.63813 4.15937 31356 ft 457 kts 251°
2026-05-01 08:33 50.62876 4.11156 31648 ft 456 kts 251°
2026-05-01 08:33 50.61941 4.06387 31921 ft 455 kts 251°
2026-05-01 08:34 50.61008 4.01626 32198 ft 455 kts 251°
2026-05-01 08:34 50.60077 3.96881 32482 ft 454 kts 251°
2026-05-01 08:34 50.58999 3.92288 32752 ft 451 kts 243°
2026-05-01 08:34 50.57420 3.87980 33014 ft 448 kts 232°
2026-05-01 08:35 50.55456 3.84261 33218 ft 446 kts 223°
2026-05-01 08:35 50.50452 3.78570 33269 ft 441 kts 204°
2026-05-01 08:36 50.44870 3.74760 33271 ft 440 kts 202°
2026-05-01 08:36 50.39252 3.70939 33272 ft 440 kts 202°
2026-05-01 08:37 50.33634 3.67122 33259 ft 439 kts 202°
2026-05-01 08:37 50.28043 3.63330 33272 ft 437 kts 202°
2026-05-01 08:38 50.22462 3.59563 33265 ft 437 kts 202°
2026-05-01 08:38 50.16872 3.55801 33264 ft 437 kts 201°
2026-05-01 08:39 50.11288 3.52059 33276 ft 437 kts 201°
2026-05-01 08:39 50.05700 3.48320 33277 ft 437 kts 201°
2026-05-01 08:40 49.97313 3.42734 33272 ft 437 kts 201°
2026-05-01 08:40 49.91726 3.39017 33273 ft 437 kts 201°
2026-05-01 08:41 49.86134 3.35303 33274 ft 437 kts 201°
2026-05-01 08:41 49.80542 3.31612 33274 ft 437 kts 201°
2026-05-01 08:42 49.74951 3.27932 33271 ft 437 kts 201°
2026-05-01 08:42 49.69362 3.24252 33257 ft 437 kts 201°
2026-05-01 08:43 49.63773 3.20571 33256 ft 437 kts 200°
2026-05-01 08:43 49.58180 3.16904 33257 ft 436 kts 200°
2026-05-01 08:44 49.52588 3.13256 33269 ft 436 kts 200°
2026-05-01 08:44 49.47133 3.09169 33284 ft 438 kts 210°
2026-05-01 08:45 49.42090 3.04025 33273 ft 438 kts 210°
2026-05-01 08:45 49.37009 2.98865 33270 ft 437 kts 210°
2026-05-01 08:46 49.31894 2.93697 33261 ft 437 kts 210°
2026-05-01 08:46 49.26848 2.88607 33252 ft 437 kts 210°
2026-05-01 08:47 49.21767 2.83492 33257 ft 437 kts 210°
2026-05-01 08:47 49.16688 2.78393 33253 ft 437 kts 210°
2026-05-01 08:48 49.11616 2.73297 33245 ft 436 kts 210°
2026-05-01 08:48 49.06538 2.68213 33242 ft 436 kts 210°
2026-05-01 08:49 49.01461 2.63156 33269 ft 436 kts 209°
2026-05-01 08:49 48.97211 2.58937 33266 ft 435 kts 209°
2026-05-01 08:50 48.92180 2.53929 33263 ft 435 kts 209°
2026-05-01 08:50 48.87119 2.48893 33261 ft 434 kts 209°
2026-05-01 08:51 48.82055 2.43901 33254 ft 434 kts 209°
2026-05-01 08:51 48.76988 2.38921 33251 ft 434 kts 209°
2026-05-01 08:52 48.71924 2.33957 33245 ft 433 kts 209°
2026-05-01 08:52 48.66863 2.28984 33245 ft 434 kts 209°
2026-05-01 08:53 48.61771 2.23983 33247 ft 434 kts 208°
2026-05-01 08:53 48.56551 2.19521 33241 ft 427 kts 197°
2026-05-01 08:54 48.50861 2.17267 33237 ft 423 kts 188°
2026-05-01 08:54 48.45103 2.15412 33248 ft 423 kts 188°
2026-05-01 08:55 48.39345 2.13548 33258 ft 423 kts 188°
2026-05-01 08:55 48.33623 2.11701 33249 ft 423 kts 188°
2026-05-01 08:56 48.27833 2.10408 33241 ft 418 kts 176°
2026-05-01 08:56 48.22090 2.11339 33242 ft 414 kts 169°
2026-05-01 08:57 48.16369 2.12544 33255 ft 415 kts 169°
2026-05-01 08:57 48.10576 2.12649 33256 ft 421 kts 184°
2026-05-01 08:58 48.04768 2.11519 33244 ft 421 kts 183°
2026-05-01 08:58 47.98945 2.10408 33261 ft 422 kts 183°
2026-05-01 08:59 47.93121 2.09297 33242 ft 422 kts 183°
2026-05-01 08:59 47.87289 2.08174 33241 ft 422 kts 183°
2026-05-01 09:00 47.81468 2.07068 33238 ft 422 kts 183°
2026-05-01 09:00 47.75637 2.05974 33246 ft 422 kts 184°
2026-05-01 09:01 47.69794 2.04868 33237 ft 423 kts 184°
2026-05-01 09:01 47.63995 2.03664 33229 ft 425 kts 189°
2026-05-01 09:02 47.58361 2.00763 33233 ft 431 kts 197°
2026-05-01 09:02 47.52770 1.97508 33236 ft 432 kts 198°
2026-05-01 09:03 47.47171 1.94265 33234 ft 433 kts 198°
2026-05-01 09:03 47.41555 1.91025 33236 ft 433 kts 198°
2026-05-01 09:04 47.35974 1.87819 33241 ft 433 kts 198°
2026-05-01 09:04 47.30340 1.84584 33234 ft 435 kts 198°
2026-05-01 09:05 47.24699 1.81353 33241 ft 435 kts 198°
2026-05-01 09:05 47.19039 1.78115 33244 ft 436 kts 198°
2026-05-01 09:06 47.13379 1.74906 33244 ft 436 kts 199°
2026-05-01 09:06 47.07694 1.71710 33234 ft 437 kts 199°
2026-05-01 09:07 47.01996 1.68520 33242 ft 438 kts 199°
2026-05-01 09:07 46.96301 1.65335 33244 ft 438 kts 199°
2026-05-01 09:08 46.90602 1.62152 33233 ft 439 kts 200°
2026-05-01 09:08 46.84880 1.58954 33230 ft 441 kts 200°
2026-05-01 09:09 46.79139 1.55758 33229 ft 442 kts 200°
2026-05-01 09:09 46.73432 1.52581 33232 ft 442 kts 200°
2026-05-01 09:10 46.67676 1.49404 33236 ft 443 kts 200°
2026-05-01 09:10 46.61916 1.46227 33242 ft 443 kts 200°
2026-05-01 09:11 46.56144 1.43043 33252 ft 443 kts 200°
2026-05-01 09:11 46.50378 1.39865 33241 ft 443 kts 202°
2026-05-01 09:12 46.44612 1.36691 33244 ft 443 kts 201°
2026-05-01 09:12 46.38843 1.33520 33246 ft 444 kts 201°
2026-05-01 09:13 46.33065 1.30365 33240 ft 444 kts 202°
2026-05-01 09:13 46.27276 1.27227 33246 ft 444 kts 202°
2026-05-01 09:14 46.21489 1.24088 33255 ft 444 kts 202°
2026-05-01 09:14 46.15703 1.20949 33238 ft 444 kts 203°
2026-05-01 09:15 46.09933 1.17819 33250 ft 443 kts 204°
2026-05-01 09:15 46.04181 1.14704 33255 ft 444 kts 204°
2026-05-01 09:16 45.98391 1.11583 33261 ft 444 kts 204°
2026-05-01 09:17 45.89712 1.06922 33270 ft 443 kts 204°
2026-05-01 09:17 45.81225 1.01786 33276 ft 437 kts 216°
2026-05-01 09:18 45.74222 0.93690 33229 ft 433 kts 223°
2026-05-01 09:19 45.67273 0.85406 33240 ft 434 kts 222°
2026-05-01 09:20 45.60302 0.77118 33234 ft 435 kts 222°
2026-05-01 09:21 45.50989 0.66065 33220 ft 436 kts 221°
2026-05-01 09:21 45.43987 0.57783 33227 ft 436 kts 222°
2026-05-01 09:22 45.34634 0.46760 33226 ft 437 kts 221°
2026-05-01 09:23 45.27593 0.38528 33234 ft 437 kts 221°
2026-05-01 09:24 45.20560 0.30301 33225 ft 437 kts 221°
2026-05-01 09:25 45.11154 0.19340 33219 ft 438 kts 220°
2026-05-01 09:26 45.04118 0.11177 33229 ft 438 kts 220°
2026-05-01 09:26 44.97044 0.02998 33221 ft 438 kts 220°
2026-05-01 09:27 44.89965 -0.05162 33229 ft 438 kts 219°
2026-05-01 09:28 44.85246 -0.10592 33229 ft 438 kts 219°
2026-05-01 09:28 44.80519 -0.16009 33229 ft 438 kts 219°
2026-05-01 09:29 44.73438 -0.24109 33228 ft 438 kts 219°
2026-05-01 09:30 44.66341 -0.32190 33222 ft 437 kts 219°
2026-05-01 09:30 44.58993 -0.39793 33229 ft 438 kts 214°
2026-05-01 09:31 44.53910 -0.44491 33227 ft 437 kts 214°
2026-05-01 09:32 44.46338 -0.51640 33225 ft 438 kts 215°
2026-05-01 09:32 44.39660 -0.58068 33221 ft 437 kts 214°
2026-05-01 09:33 44.34634 -0.62879 33221 ft 437 kts 214°
2026-05-01 09:34 44.27097 -0.70051 33223 ft 437 kts 214°
2026-05-01 09:34 44.19490 -0.77064 33220 ft 436 kts 213°
2026-05-01 09:35 44.11867 -0.84017 33207 ft 437 kts 213°
2026-05-01 09:36 44.06790 -0.88674 33203 ft 437 kts 213°
2026-05-01 09:36 44.01707 -0.93334 33202 ft 437 kts 213°
2026-05-01 09:37 43.96625 -0.97976 33196 ft 437 kts 213°
2026-05-01 09:37 43.88984 -1.04930 33189 ft 438 kts 213°
2026-05-01 09:38 43.81337 -1.11860 33196 ft 438 kts 213°
2026-05-01 09:39 43.73687 -1.18766 33196 ft 437 kts 213°
2026-05-01 09:39 43.68587 -1.23360 33201 ft 437 kts 213°
2026-05-01 09:40 43.60935 -1.30244 33200 ft 437 kts 213°
2026-05-01 09:41 43.55838 -1.34816 33199 ft 437 kts 213°
2026-05-01 09:41 43.48222 -1.41623 33197 ft 437 kts 213°
2026-05-01 09:42 43.43090 -1.46202 33206 ft 437 kts 213°
2026-05-01 09:43 43.32941 -1.55240 33199 ft 435 kts 213°
2026-05-01 09:43 43.27800 -1.59645 33189 ft 436 kts 207°
2026-05-01 09:44 43.22044 -1.62189 33189 ft 437 kts 189°
2026-05-01 09:44 43.19024 -1.62685 33194 ft 438 kts 188°
2026-05-01 09:45 43.12978 -1.63665 33196 ft 437 kts 189°
2026-05-01 09:45 43.03932 -1.65174 33194 ft 436 kts 189°
2026-05-01 09:46 42.97907 -1.66172 33189 ft 437 kts 188°
2026-05-01 09:46 42.91870 -1.67161 33184 ft 438 kts 188°
2026-05-01 09:47 42.85813 -1.68154 33212 ft 438 kts 188°
2026-05-01 09:47 42.79755 -1.69153 33212 ft 439 kts 188°
2026-05-01 09:48 42.73736 -1.70451 33212 ft 436 kts 198°
2026-05-01 09:48 42.68192 -1.73690 33206 ft 434 kts 208°
2026-05-01 09:49 42.62782 -1.77336 33199 ft 434 kts 207°
2026-05-01 09:49 42.57364 -1.80963 33192 ft 434 kts 207°
2026-05-01 09:50 42.51956 -1.84595 33193 ft 434 kts 207°
2026-05-01 09:50 42.46542 -1.88209 33193 ft 434 kts 207°
2026-05-01 09:51 42.41126 -1.91821 33198 ft 434 kts 207°
2026-05-01 09:51 42.35713 -1.95424 33193 ft 434 kts 207°
2026-05-01 09:52 42.30288 -1.99024 33189 ft 434 kts 207°
2026-05-01 09:52 42.24868 -2.02630 33191 ft 435 kts 207°
2026-05-01 09:53 42.19434 -2.06232 33199 ft 435 kts 207°
2026-05-01 09:53 42.13995 -2.09818 33187 ft 435 kts 207°
2026-05-01 09:54 42.08562 -2.13401 33187 ft 435 kts 207°
2026-05-01 09:54 42.03123 -2.16982 33182 ft 435 kts 207°
2026-05-01 09:55 41.97681 -2.20561 33186 ft 435 kts 207°
2026-05-01 09:55 41.92244 -2.24129 33186 ft 435 kts 207°
2026-05-01 09:56 41.86799 -2.27691 33187 ft 435 kts 207°
2026-05-01 09:56 41.81362 -2.31247 33181 ft 435 kts 207°
2026-05-01 09:57 41.75910 -2.34809 33178 ft 436 kts 207°
2026-05-01 09:57 41.70452 -2.38361 33180 ft 436 kts 207°
2026-05-01 09:58 41.64991 -2.41911 33181 ft 437 kts 207°
2026-05-01 09:58 41.59524 -2.45454 33181 ft 437 kts 207°
2026-05-01 09:59 41.54052 -2.48997 33182 ft 437 kts 207°
2026-05-01 09:59 41.48571 -2.52541 33175 ft 437 kts 207°
2026-05-01 10:00 41.43090 -2.56069 33174 ft 438 kts 207°
2026-05-01 10:00 41.37603 -2.59589 33174 ft 438 kts 207°
2026-05-01 10:01 41.32188 -2.63186 33172 ft 436 kts 213°
2026-05-01 10:01 41.27159 -2.67781 33161 ft 436 kts 217°
2026-05-01 10:02 41.22158 -2.72381 33154 ft 439 kts 217°
2026-05-01 10:02 41.17111 -2.76998 33152 ft 442 kts 217°
2026-05-01 10:03 41.12076 -2.81614 33158 ft 443 kts 217°
2026-05-01 10:03 41.06995 -2.86266 33159 ft 444 kts 217°
2026-05-01 10:04 41.01906 -2.90921 33170 ft 445 kts 217°
2026-05-01 10:04 40.96804 -2.95574 33175 ft 445 kts 217°
2026-05-01 10:05 40.91699 -3.00217 33176 ft 445 kts 217°
2026-05-01 10:05 40.86593 -3.04855 33166 ft 446 kts 217°
2026-05-01 10:06 40.81477 -3.09488 33174 ft 445 kts 217°
2026-05-01 10:06 40.76368 -3.14111 33188 ft 445 kts 217°
2026-05-01 10:07 40.71262 -3.18735 33190 ft 445 kts 217°
2026-05-01 10:07 40.66149 -3.23350 33191 ft 445 kts 217°
2026-05-01 10:08 40.58477 -3.30238 33193 ft 447 kts 217°
2026-05-01 10:09 40.53280 -3.34898 33193 ft 456 kts 217°
2026-05-01 10:09 40.48029 -3.39603 33193 ft 456 kts 217°
2026-05-01 10:10 40.42800 -3.44283 33186 ft 455 kts 217°
2026-05-01 10:10 40.35019 -3.51210 33189 ft 449 kts 216°
2026-05-01 10:11 40.30722 -3.55027 33196 ft 449 kts 216°
2026-05-01 10:11 40.25548 -3.59620 33197 ft 449 kts 216°
2026-05-01 10:12 40.20383 -3.64203 33198 ft 449 kts 216°
2026-05-01 10:13 40.12621 -3.71072 33189 ft 448 kts 216°
2026-05-01 10:13 40.07451 -3.75638 33176 ft 448 kts 216°
2026-05-01 10:14 39.99696 -3.82465 33181 ft 448 kts 216°
2026-05-01 10:14 39.94524 -3.87005 33169 ft 447 kts 216°
2026-05-01 10:15 39.89372 -3.91520 33180 ft 447 kts 216°
2026-05-01 10:15 39.84202 -3.96034 33178 ft 446 kts 216°
2026-05-01 10:16 39.79044 -4.00542 33175 ft 446 kts 216°
2026-05-01 10:17 39.71313 -4.07281 33171 ft 446 kts 216°
2026-05-01 10:17 39.63591 -4.13998 33163 ft 445 kts 216°
2026-05-01 10:18 39.55901 -4.20662 33163 ft 445 kts 216°
2026-05-01 10:19 39.50744 -4.25119 33161 ft 445 kts 216°
2026-05-01 10:19 39.45586 -4.29566 33155 ft 445 kts 216°
2026-05-01 10:20 39.37851 -4.36224 33162 ft 445 kts 216°
2026-05-01 10:20 39.32691 -4.40656 33164 ft 445 kts 216°
2026-05-01 10:21 39.24962 -4.47295 33153 ft 445 kts 216°
2026-05-01 10:22 39.17226 -4.53915 33160 ft 445 kts 216°
2026-05-01 10:23 39.09475 -4.60518 33160 ft 445 kts 216°
2026-05-01 10:23 39.01727 -4.67113 33152 ft 445 kts 216°
2026-05-01 10:24 38.91379 -4.75886 33160 ft 446 kts 216°
2026-05-01 10:25 38.86202 -4.80249 33379 ft 445 kts 216°
2026-05-01 10:25 38.81036 -4.84603 33955 ft 443 kts 216°
2026-05-01 10:26 38.78459 -4.86779 34200 ft 443 kts 217°
2026-05-01 10:26 38.75887 -4.88948 34445 ft 442 kts 217°
2026-05-01 10:26 38.70759 -4.93262 34869 ft 441 kts 217°
2026-05-01 10:27 38.65629 -4.97572 35150 ft 439 kts 217°
2026-05-01 10:28 38.57976 -5.03986 35154 ft 438 kts 217°
2026-05-01 10:28 38.50281 -5.10289 35152 ft 441 kts 212°
2026-05-01 10:29 38.41972 -5.15459 35153 ft 443 kts 210°
2026-05-01 10:30 38.31267 -5.22107 35149 ft 443 kts 210°
2026-05-01 10:31 38.20173 -5.28964 35148 ft 443 kts 210°
2026-05-01 10:32 38.11851 -5.34101 35153 ft 443 kts 211°
2026-05-01 10:33 38.00802 -5.40890 35151 ft 442 kts 211°
2026-05-01 10:34 37.92512 -5.45977 35163 ft 441 kts 211°
2026-05-01 10:34 37.86990 -5.49359 35165 ft 441 kts 211°
2026-05-01 10:35 37.78700 -5.54421 35143 ft 441 kts 212°
2026-05-01 10:35 37.73175 -5.57790 35148 ft 441 kts 212°
2026-05-01 10:36 37.64874 -5.62840 35151 ft 442 kts 212°
2026-05-01 10:37 37.59332 -5.66188 35158 ft 442 kts 212°
2026-05-01 10:37 37.51011 -5.71227 35151 ft 442 kts 213°
2026-05-01 10:38 37.45475 -5.74572 35171 ft 441 kts 213°
2026-05-01 10:38 37.40439 -5.78679 35180 ft 425 kts 227°
2026-05-01 10:39 37.35943 -5.83498 35180 ft 424 kts 227°
2026-05-01 10:39 37.31463 -5.88259 35158 ft 424 kts 227°
2026-05-01 10:40 37.26953 -5.93038 35165 ft 423 kts 227°
2026-05-01 10:40 37.22451 -5.97804 35167 ft 423 kts 227°
2026-05-01 10:41 37.17955 -6.02563 35165 ft 423 kts 227°
2026-05-01 10:42 37.11216 -6.09690 35164 ft 422 kts 227°
2026-05-01 10:42 37.06737 -6.14430 35153 ft 420 kts 228°
2026-05-01 10:43 37.02266 -6.19137 35166 ft 419 kts 228°
2026-05-01 10:43 36.97840 -6.23787 35173 ft 418 kts 227°
2026-05-01 10:44 36.93386 -6.28455 35177 ft 417 kts 227°
2026-05-01 10:44 36.88937 -6.33115 35188 ft 417 kts 227°
2026-05-01 10:45 36.84492 -6.37761 35191 ft 416 kts 227°
2026-05-01 10:45 36.80052 -6.42401 35181 ft 416 kts 228°
2026-05-01 10:46 36.75610 -6.47039 35184 ft 416 kts 227°
2026-05-01 10:46 36.71161 -6.51670 35198 ft 415 kts 227°
2026-05-01 10:47 36.66756 -6.56253 35206 ft 414 kts 227°
2026-05-01 10:47 36.62324 -6.60844 35195 ft 414 kts 227°
2026-05-01 10:48 36.57894 -6.65433 35185 ft 413 kts 227°
2026-05-01 10:48 36.53479 -6.70005 35168 ft 413 kts 227°
2026-05-01 10:49 36.49056 -6.74573 35172 ft 413 kts 227°
2026-05-01 10:49 36.44635 -6.79133 35177 ft 413 kts 227°
2026-05-01 10:50 36.40236 -6.83658 35180 ft 413 kts 227°
2026-05-01 10:50 36.35788 -6.88236 35190 ft 413 kts 227°
2026-05-01 10:51 36.31364 -6.92777 35184 ft 413 kts 227°
2026-05-01 10:51 36.26940 -6.97314 35161 ft 413 kts 227°
2026-05-01 10:52 36.22532 -7.01826 35181 ft 413 kts 227°
2026-05-01 10:52 36.18098 -7.06362 35187 ft 414 kts 227°
2026-05-01 10:53 36.13655 -7.10898 35194 ft 414 kts 227°
2026-05-01 10:53 36.09204 -7.15430 35198 ft 414 kts 226°
2026-05-01 10:54 36.04762 -7.19945 35200 ft 414 kts 226°
2026-05-01 10:54 36.01065 -7.23700 35158 ft 414 kts 226°
2026-05-01 10:55 35.96622 -7.28209 35169 ft 414 kts 226°
2026-05-01 10:55 35.92173 -7.32717 35180 ft 414 kts 226°
2026-05-01 10:56 35.87721 -7.37228 35184 ft 414 kts 226°
2026-05-01 10:56 35.83266 -7.41727 35186 ft 414 kts 226°
2026-05-01 10:57 35.78794 -7.46212 35201 ft 414 kts 226°
2026-05-01 10:57 35.74307 -7.50679 35202 ft 415 kts 226°
2026-05-01 10:58 35.69821 -7.55145 35205 ft 415 kts 226°
2026-05-01 10:58 35.65331 -7.59610 35214 ft 415 kts 226°
2026-05-01 10:59 35.60844 -7.64062 35215 ft 415 kts 225°
2026-05-01 10:59 35.56353 -7.68521 35215 ft 414 kts 225°
2026-05-01 11:00 35.51895 -7.72946 35215 ft 414 kts 225°
2026-05-01 11:00 35.47406 -7.77389 35190 ft 415 kts 225°
2026-05-01 11:01 35.42903 -7.81830 35193 ft 415 kts 225°
2026-05-01 11:01 35.38408 -7.86283 35199 ft 415 kts 225°
2026-05-01 11:02 35.33944 -7.90769 35205 ft 416 kts 225°
2026-05-01 11:02 35.29459 -7.95264 35210 ft 416 kts 225°
2026-05-01 11:03 35.24970 -7.99740 35214 ft 416 kts 225°
2026-05-01 11:03 35.20476 -8.04208 35188 ft 417 kts 225°
2026-05-01 11:04 35.15970 -8.08687 35187 ft 418 kts 225°
2026-05-01 11:04 35.11448 -8.13178 35195 ft 419 kts 225°
2026-05-01 11:05 35.06923 -8.17663 35203 ft 419 kts 225°
2026-05-01 11:05 35.02383 -8.22146 35211 ft 420 kts 225°
2026-05-01 11:06 34.97849 -8.26625 35213 ft 420 kts 225°
2026-05-01 11:06 34.93328 -8.31077 35200 ft 420 kts 224°
2026-05-01 11:07 34.86507 -8.37795 35209 ft 420 kts 224°
2026-05-01 11:07 34.81960 -8.42272 35215 ft 420 kts 224°
2026-05-01 11:08 34.77405 -8.46745 35215 ft 420 kts 224°
2026-05-01 11:09 34.70572 -8.53440 35221 ft 420 kts 224°
2026-05-01 11:09 34.66021 -8.57895 35209 ft 420 kts 224°
2026-05-01 11:10 34.59181 -8.64575 35212 ft 420 kts 224°
2026-05-01 11:10 34.54618 -8.69018 35213 ft 420 kts 224°
2026-05-01 11:11 34.50052 -8.73455 35212 ft 420 kts 224°
2026-05-01 11:11 34.45488 -8.77887 35213 ft 420 kts 224°
2026-05-01 11:12 34.40920 -8.82310 35199 ft 420 kts 223°
2026-05-01 11:12 34.36337 -8.86715 35205 ft 420 kts 223°
2026-05-01 11:13 34.31753 -8.91113 35209 ft 420 kts 223°
2026-05-01 11:13 34.27178 -8.95512 35208 ft 420 kts 223°
2026-05-01 11:14 34.22597 -8.99900 35206 ft 420 kts 223°
2026-05-01 11:14 34.18008 -9.04288 35203 ft 420 kts 223°
2026-05-01 11:15 34.13422 -9.08659 35178 ft 420 kts 223°
2026-05-01 11:15 34.08833 -9.13037 35190 ft 421 kts 223°
2026-05-01 11:16 34.04239 -9.17414 35189 ft 421 kts 223°
2026-05-01 11:16 33.99639 -9.21789 35192 ft 421 kts 223°
2026-05-01 11:17 33.95031 -9.26155 35199 ft 421 kts 223°
2026-05-01 11:17 33.90422 -9.30529 35199 ft 421 kts 223°
2026-05-01 11:18 33.85844 -9.34870 35176 ft 422 kts 223°
2026-05-01 11:18 33.81233 -9.39238 35188 ft 422 kts 222°
2026-05-01 11:19 33.76611 -9.43598 35200 ft 422 kts 222°
2026-05-01 11:19 33.71987 -9.47952 35201 ft 422 kts 222°
2026-05-01 11:20 33.67361 -9.52308 35205 ft 422 kts 222°
2026-05-01 11:20 33.62735 -9.56654 35197 ft 423 kts 222°
2026-05-01 11:21 33.58099 -9.61004 35181 ft 423 kts 222°
2026-05-01 11:21 33.53458 -9.65357 35174 ft 424 kts 223°
2026-05-01 11:22 33.48811 -9.69711 35178 ft 424 kts 222°
2026-05-01 11:22 33.44152 -9.74053 35183 ft 425 kts 222°
2026-05-01 11:23 33.39493 -9.78403 35188 ft 425 kts 223°
2026-05-01 11:23 33.34828 -9.82761 35194 ft 425 kts 222°
2026-05-01 11:24 33.30162 -9.87107 35202 ft 425 kts 223°
2026-05-01 11:25 33.23156 -9.93617 35195 ft 425 kts 222°
2026-05-01 11:25 33.16149 -10.00102 35200 ft 425 kts 223°
2026-05-01 11:26 33.09153 -10.06586 35200 ft 424 kts 223°
2026-05-01 11:27 33.04488 -10.10894 35197 ft 424 kts 222°
2026-05-01 11:27 32.99817 -10.15199 35197 ft 424 kts 223°
2026-05-01 11:28 32.95154 -10.19510 35199 ft 424 kts 223°
2026-05-01 11:28 32.90481 -10.23801 35198 ft 424 kts 222°
2026-05-01 11:29 32.83463 -10.30231 35205 ft 424 kts 222°
2026-05-01 11:30 32.76450 -10.36644 35198 ft 424 kts 222°
2026-05-01 11:30 32.71775 -10.40915 35174 ft 423 kts 222°
2026-05-01 11:31 32.67106 -10.45179 35171 ft 424 kts 222°
2026-05-01 11:31 32.62420 -10.49456 35179 ft 425 kts 222°
2026-05-01 11:32 32.57729 -10.53729 35184 ft 425 kts 222°
2026-05-01 11:32 32.53029 -10.57994 35192 ft 425 kts 222°
2026-05-01 11:33 32.48331 -10.62260 35188 ft 425 kts 222°
2026-05-01 11:33 32.43669 -10.66488 35191 ft 425 kts 222°
2026-05-01 11:34 32.38969 -10.70739 35169 ft 425 kts 222°
2026-05-01 11:34 32.34259 -10.74992 35174 ft 426 kts 222°
2026-05-01 11:35 32.29547 -10.79235 35173 ft 426 kts 222°
2026-05-01 11:35 32.24840 -10.83485 35170 ft 426 kts 222°
2026-05-01 11:36 32.20120 -10.87746 35180 ft 426 kts 222°
2026-05-01 11:36 32.15403 -10.91989 35181 ft 426 kts 222°
2026-05-01 11:37 32.10685 -10.96223 35163 ft 427 kts 221°
2026-05-01 11:37 32.05954 -11.00461 35168 ft 427 kts 221°
2026-05-01 11:38 32.02016 -11.03989 35174 ft 428 kts 221°
2026-05-01 11:38 31.97272 -11.08228 35179 ft 428 kts 221°
2026-05-01 11:39 31.92527 -11.12464 35183 ft 428 kts 221°
2026-05-01 11:39 31.87776 -11.16708 35193 ft 428 kts 221°
2026-05-01 11:40 31.83029 -11.20955 35183 ft 429 kts 221°
2026-05-01 11:40 31.78262 -11.25196 35181 ft 430 kts 221°
2026-05-01 11:41 31.73488 -11.29433 35180 ft 430 kts 221°
2026-05-01 11:41 31.68722 -11.33685 35193 ft 430 kts 221°
2026-05-01 11:42 31.63952 -11.37940 35192 ft 430 kts 221°
2026-05-01 11:42 31.59187 -11.42184 35192 ft 430 kts 221°
2026-05-01 11:43 31.54413 -11.46422 35169 ft 430 kts 221°
2026-05-01 11:43 31.49632 -11.50658 35171 ft 431 kts 221°
2026-05-01 11:44 31.42457 -11.57027 35177 ft 432 kts 221°
2026-05-01 11:44 31.37668 -11.61266 35182 ft 432 kts 221°
2026-05-01 11:45 31.32872 -11.65501 35183 ft 432 kts 221°
2026-05-01 11:45 31.28074 -11.69728 35185 ft 432 kts 221°
2026-05-01 11:46 31.23270 -11.73953 35167 ft 432 kts 221°
2026-05-01 11:46 31.18458 -11.78185 35178 ft 433 kts 221°
2026-05-01 11:47 31.13646 -11.82418 35179 ft 433 kts 221°
2026-05-01 11:47 31.08830 -11.86656 35184 ft 433 kts 221°
2026-05-01 11:48 31.04011 -11.90879 35189 ft 433 kts 221°
2026-05-01 11:48 30.99184 -11.95097 35192 ft 434 kts 221°
2026-05-01 11:49 30.94360 -11.99309 35178 ft 434 kts 220°
2026-05-01 11:49 30.89528 -12.03528 35180 ft 434 kts 220°
2026-05-01 11:50 30.84694 -12.07740 35186 ft 434 kts 220°
2026-05-01 11:50 30.79854 -12.11957 35187 ft 435 kts 220°
2026-05-01 11:51 30.75010 -12.16172 35190 ft 435 kts 220°
2026-05-01 11:51 30.70160 -12.20378 35193 ft 435 kts 220°
2026-05-01 11:52 30.65312 -12.24586 35178 ft 435 kts 220°
2026-05-01 11:52 30.60486 -12.28760 35181 ft 435 kts 220°
2026-05-01 11:53 30.55629 -12.32962 35185 ft 436 kts 220°
2026-05-01 11:53 30.50771 -12.37170 35192 ft 436 kts 220°
2026-05-01 11:54 30.45899 -12.41367 35194 ft 436 kts 220°
2026-05-01 11:54 30.41026 -12.45545 35200 ft 436 kts 220°
2026-05-01 11:55 30.36149 -12.49729 35201 ft 436 kts 220°
2026-05-01 11:55 30.31271 -12.53908 35183 ft 436 kts 220°
2026-05-01 11:56 30.26390 -12.58084 35184 ft 437 kts 220°
2026-05-01 11:56 30.21501 -12.62269 35187 ft 437 kts 220°
2026-05-01 11:57 30.16613 -12.66438 35193 ft 437 kts 220°
2026-05-01 11:57 30.11717 -12.70608 35197 ft 437 kts 220°
2026-05-01 11:58 30.06820 -12.74783 35198 ft 437 kts 220°
2026-05-01 11:59 29.99489 -12.81054 35203 ft 437 kts 220°
2026-05-01 11:59 29.94596 -12.85231 35204 ft 437 kts 220°
2026-05-01 12:00 29.87255 -12.91475 35206 ft 437 kts 220°
2026-05-01 12:01 29.79920 -12.97710 35208 ft 437 kts 220°
2026-05-01 12:01 29.75032 -13.01865 35190 ft 437 kts 220°
2026-05-01 12:02 29.70140 -13.06015 35191 ft 437 kts 219°
2026-05-01 12:02 29.65241 -13.10165 35200 ft 437 kts 219°
2026-05-01 12:03 29.60335 -13.14303 35203 ft 438 kts 219°
2026-05-01 12:03 29.55462 -13.18415 35204 ft 438 kts 219°
2026-05-01 12:04 29.50557 -13.22555 35210 ft 438 kts 219°
2026-05-01 12:04 29.45647 -13.26698 35214 ft 438 kts 219°
2026-05-01 12:05 29.40727 -13.30837 35196 ft 438 kts 219°
2026-05-01 12:05 29.33346 -13.37039 35198 ft 439 kts 219°
2026-05-01 12:06 29.28412 -13.41179 35203 ft 439 kts 219°
2026-05-01 12:06 29.23478 -13.45315 35201 ft 440 kts 219°
2026-05-01 12:07 29.18538 -13.49443 35201 ft 440 kts 219°
2026-05-01 12:07 29.13724 -13.53671 35212 ft 439 kts 223°
2026-05-01 12:08 29.09131 -13.58255 35188 ft 438 kts 224°
2026-05-01 12:08 29.04590 -13.62907 35190 ft 439 kts 224°
2026-05-01 12:09 28.99996 -13.67507 35195 ft 439 kts 223°
2026-05-01 12:09 28.95362 -13.72061 35196 ft 440 kts 223°
2026-05-01 12:10 28.88393 -13.78887 35206 ft 440 kts 223°
2026-05-01 12:11 28.81445 -13.85707 35197 ft 439 kts 223°
2026-05-01 12:11 28.76811 -13.90255 35203 ft 439 kts 223°
2026-05-01 12:12 28.72177 -13.94793 35202 ft 439 kts 223°
2026-05-01 12:12 28.67540 -13.99337 35205 ft 439 kts 223°
2026-05-01 12:13 28.62952 -14.03820 35190 ft 432 kts 223°
2026-05-01 12:13 28.58424 -14.08233 35184 ft 427 kts 223°
2026-05-01 12:14 28.56167 -14.10437 34950 ft 427 kts 223°
2026-05-01 12:14 28.53915 -14.12633 34590 ft 427 kts 223°
2026-05-01 12:14 28.51642 -14.14848 33712 ft 433 kts 223°
2026-05-01 12:14 28.49344 -14.17088 32839 ft 437 kts 222°
2026-05-01 12:15 28.47034 -14.19339 31997 ft 440 kts 222°
2026-05-01 12:15 28.44702 -14.21612 31138 ft 443 kts 222°
2026-05-01 12:15 28.42344 -14.23905 30162 ft 449 kts 222°
2026-05-01 12:15 28.39952 -14.26227 29032 ft 455 kts 222°
2026-05-01 12:16 28.37542 -14.28565 28201 ft 454 kts 222°
2026-05-01 12:16 28.35164 -14.30870 27615 ft 448 kts 222°
2026-05-01 12:16 28.32801 -14.33161 26931 ft 445 kts 222°
2026-05-01 12:16 28.30454 -14.35432 26264 ft 441 kts 222°
2026-05-01 12:17 28.28128 -14.37680 25614 ft 437 kts 221°
2026-05-01 12:17 28.25820 -14.39908 24969 ft 434 kts 221°
2026-05-01 12:17 28.23532 -14.42117 24333 ft 431 kts 221°
2026-05-01 12:17 28.21262 -14.44309 23695 ft 427 kts 221°
2026-05-01 12:18 28.19002 -14.46490 23016 ft 423 kts 221°
2026-05-01 12:18 28.16778 -14.48633 22443 ft 416 kts 221°
2026-05-01 12:18 28.14593 -14.50736 21889 ft 409 kts 221°
2026-05-01 12:18 28.12442 -14.52805 21341 ft 403 kts 221°
2026-05-01 12:19 28.10321 -14.54846 20837 ft 396 kts 221°
2026-05-01 12:19 28.08243 -14.56850 20344 ft 390 kts 220°
2026-05-01 12:19 28.06219 -14.58804 19875 ft 384 kts 220°
2026-05-01 12:19 28.04202 -14.60750 19414 ft 378 kts 220°
2026-05-01 12:20 28.02215 -14.62667 18950 ft 372 kts 220°
2026-05-01 12:20 28.00260 -14.64559 18515 ft 367 kts 221°
2026-05-01 12:20 27.98474 -14.66593 18009 ft 362 kts 225°
2026-05-01 12:20 27.97327 -14.67952 17720 ft 358 kts 225°
2026-05-01 12:21 27.95613 -14.69979 17284 ft 353 kts 225°
2026-05-01 12:21 27.93924 -14.71972 16837 ft 349 kts 226°
2026-05-01 12:21 27.92251 -14.73947 16397 ft 346 kts 226°
2026-05-01 12:21 27.90596 -14.75904 15945 ft 343 kts 226°
2026-05-01 12:22 27.88952 -14.77849 15493 ft 340 kts 226°
2026-05-01 12:22 27.87322 -14.79773 15043 ft 338 kts 226°
2026-05-01 12:22 27.85699 -14.81684 14579 ft 336 kts 226°
2026-05-01 12:22 27.84084 -14.83590 14118 ft 335 kts 226°
2026-05-01 12:23 27.82475 -14.85484 13603 ft 334 kts 226°
2026-05-01 12:23 27.80874 -14.87370 13147 ft 331 kts 227°
2026-05-01 12:23 27.79317 -14.89203 12995 ft 313 kts 227°
2026-05-01 12:23 27.77861 -14.90911 12919 ft 291 kts 227°
2026-05-01 12:24 27.76499 -14.92509 12812 ft 274 kts 227°
2026-05-01 12:24 27.75209 -14.94026 12696 ft 262 kts 227°
2026-05-01 12:24 27.73968 -14.95488 12580 ft 253 kts 227°
2026-05-01 12:24 27.72757 -14.96916 12463 ft 251 kts 227°
2026-05-01 12:25 27.71552 -14.98335 12361 ft 250 kts 227°
2026-05-01 12:25 27.69373 -15.01353 12046 ft 250 kts 243°
2026-05-01 12:25 27.68611 -15.03106 11666 ft 247 kts 244°
2026-05-01 12:26 27.67860 -15.04839 11288 ft 245 kts 244°
2026-05-01 12:26 27.66367 -15.08270 10596 ft 242 kts 244°
2026-05-01 12:26 27.65625 -15.09969 10251 ft 241 kts 244°
2026-05-01 12:27 27.64886 -15.11658 9887 ft 240 kts 244°
2026-05-01 12:27 27.63872 -15.15195 9134 ft 240 kts 268°
2026-05-01 12:28 27.64773 -15.18829 8334 ft 242 kts 289°
2026-05-01 12:28 27.65393 -15.20581 7981 ft 239 kts 289°
2026-05-01 12:28 27.66600 -15.24028 7291 ft 234 kts 289°
2026-05-01 12:29 27.67195 -15.25727 6955 ft 232 kts 290°
2026-05-01 12:29 27.67786 -15.27414 6625 ft 230 kts 290°
2026-05-01 12:29 27.68945 -15.30730 5956 ft 227 kts 290°
2026-05-01 12:30 27.70100 -15.34032 5313 ft 225 kts 290°
2026-05-01 12:30 27.70677 -15.35673 4992 ft 224 kts 291°
2026-05-01 12:30 27.71251 -15.37306 4654 ft 223 kts 291°
2026-05-01 12:31 27.71821 -15.38929 4331 ft 222 kts 291°
2026-05-01 12:31 27.72385 -15.40550 4018 ft 222 kts 291°
2026-05-01 12:31 27.73056 -15.42106 3700 ft 220 kts 306°
2026-05-01 12:31 27.74107 -15.43319 3394 ft 214 kts 325°
2026-05-01 12:32 27.75372 -15.44088 3201 ft 198 kts 337°
2026-05-01 12:32 27.77885 -15.45078 2936 ft 188 kts 360°
2026-05-01 12:32 27.79147 -15.44856 2719 ft 182 kts 20°
2026-05-01 12:33 27.80304 -15.44346 2490 ft 176 kts 21°
2026-05-01 12:33 27.81436 -15.43847 2258 ft 172 kts 21°
2026-05-01 12:33 27.82503 -15.43377 2058 ft 156 kts 21°
2026-05-01 12:33 27.83496 -15.42940 1845 ft 149 kts 22°
2026-05-01 12:34 27.84447 -15.42519 1624 ft 145 kts 22°
2026-05-01 12:34 27.85390 -15.42103 1428 ft 146 kts 22°
2026-05-01 12:34 27.86335 -15.41685 1229 ft 145 kts 23°
2026-05-01 12:34 27.87264 -15.41273 1040 ft 143 kts 24°
2026-05-01 12:35 27.88182 -15.40861 875 ft 143 kts 25°
2026-05-01 12:35 27.89115 -15.40443 733 ft 145 kts 24°
2026-05-01 12:35 27.90061 -15.40033 526 ft 145 kts 24°
2026-05-01 12:35 27.90997 -15.39621 320 ft 144 kts 24°
2026-05-01 12:36 27.91935 -15.39213 131 ft 144 kts 24°
2026-05-01 12:36 27.92813 -15.38825 63 ft 119 kts 21°
2026-05-01 12:36 27.93413 -15.38559 60 ft 67 kts 21°
2026-05-01 12:36 27.93700 -15.38439 57 ft 37 kts 15°
2026-05-01 12:37 27.93938 -15.38439 68 ft 22 kts 351°
2026-05-01 12:37 27.94017 -15.38467 64 ft 8 kts 324°
2026-05-01 12:37 27.94047 -15.38508 68 ft 5 kts 300°
2026-05-01 12:37 27.94066 -15.38557 75 ft 9 kts 291°
2026-05-01 12:38 27.94067 -15.38609 74 ft 3 kts 247°
2026-05-01 12:38 27.94046 -15.38634 85 ft 8 kts 214°
2026-05-01 12:38 27.94000 -15.38657 87 ft 8 kts 202°
2026-05-01 12:38 27.93936 -15.38685 87 ft 10 kts 201°
2026-05-01 12:39 27.93853 -15.38723 87 ft 13 kts 201°
2026-05-01 12:39 27.93768 -15.38760 83 ft 13 kts 201°
2026-05-01 12:39 27.93688 -15.38795 85 ft 12 kts 201°
2026-05-01 12:39 27.93613 -15.38828 86 ft 11 kts 201°
2026-05-01 12:40 27.93567 -15.38849 87 ft 2 kts 204°
2026-05-01 12:40 27.93557 -15.38865 86 ft 3 kts 246°
2026-05-01 12:40 27.93560 -15.38897 84 ft 4 kts 288°
2026-05-01 12:40 27.93564 -15.38909 86 ft 0 kts 291°
2026-05-01 12:41 27.93566 -15.38914 89 ft 2 kts 291°
2026-05-01 12:41 27.93572 -15.38931 87 ft 1 kts 291°
2026-05-01 12:41 27.93573 -15.38936 86 ft 0 kts 291°